Weather History for KBBW - January, 2012

Change the Weather History Date:

Friday, January 27, 2012

  Actual Average Record
Temperature  
Mean Temperature 31 °F 26 °F  
Max Temperature 41 °F 38 °F 74 °F (2002)
Min Temperature 21 °F 13 °F -36 °F (1963)
Degree Days  
Heating Degree Days 34 39  
Month to date heating degree days 964 1060  
Cooling Degree Days 0 0  
Month to date cooling degree days 0 0  
Year to date cooling degree days 0 0  
Moisture  
Dew Point 17 °F    
Average Humidity 56    
Maximum Humidity 74    
Minimum Humidity 38    
Precipitation  
Precipitation 0.00 in 0.02 in 1.46 in (1944)
Sea Level Pressure  
Sea Level Pressure 30.04 in    
Wind  
Wind Speed 14 mph (NNW)    
Max Wind Speed 36 mph    
Max Gust Speed 45 mph    
Visibility 10 miles    
Events      
T = Trace of Precipitation, MM = Missing Value Source: NWS Daily Summary

Daily Weather History Graph

Daily Weather History Graph

Search for Another Location

Airport or City:

Trip Planner

Search our weather history database for the weather conditions in past years. The results will help you decide how hot, cold, wet, or windy it might be!

Date:

Astronomy

Jan. 27, 2012 Rise Set
Actual Time 7:55 AM CST 5:47 PM CST
Civil Twilight 7:25 AM CST 6:17 PM CST
Nautical Twilight 6:51 AM CST 6:51 PM CST
Astronomical Twilight 6:19 AM CST 7:23 PM CST
Moon 9:46 AM CST (1/27) 10:44 PM CST (1/27)
Length of Visible Light 10h 52m
Length of Day
9h 52m
Waxing Crescent, 20% of the Moon is Illuminated
Jan 27
Waxing Crescent
Jan 30
First Quarter
Feb 7
Full
Feb 14
Last Quarter
Feb 21
New

Hourly Weather History & Observations

Time (CST) Temp. Windchill Dew Point Humidity Pressure Visibility Wind Dir Wind Speed Gust Speed Precip Events Conditions
12:53 AM 34.0 °F 29.8 °F 16.0 °F 48% 29.82 in 10.0 mi SSE 4.6 mph - N/A   Overcast
1:53 AM 35.1 °F 29.3 °F 16.0 °F 46% 29.79 in 10.0 mi SE 6.9 mph - N/A   Overcast
2:53 AM 34.0 °F 28.8 °F 17.1 °F 50% 29.79 in 10.0 mi SE 5.8 mph - N/A   Overcast
3:53 AM 34.0 °F 28.8 °F 18.0 °F 52% 29.78 in 10.0 mi SSE 5.8 mph - N/A   Overcast
4:53 AM 33.1 °F 26.1 °F 19.0 °F 56% 29.78 in 10.0 mi SE 8.1 mph - N/A   Overcast
5:53 AM 33.1 °F - 19.0 °F 56% 29.83 in 10.0 mi Calm Calm - N/A   Overcast
6:53 AM 28.4 °F - 17.6 °F 64% 29.80 in 10.0 mi Calm Calm - N/A   Partly Cloudy
7:53 AM 25.0 °F 19.3 °F 17.1 °F 72% 29.94 in 10.0 mi NNW 4.6 mph - N/A   Mostly Cloudy
8:53 AM 34.0 °F 23.0 °F 19.9 °F 56% 29.96 in 10.0 mi NNW 18.4 mph - N/A   Clear
9:53 AM 37.4 °F 26.4 °F 26.6 °F 65% 29.92 in 10.0 mi North 23.0 mph 32.2 mph N/A   Partly Cloudy
10:53 AM 39.9 °F 29.7 °F 25.0 °F 55% 30.02 in 10.0 mi North 23.0 mph 31.1 mph N/A   Mostly Cloudy
11:53 AM 39.9 °F 28.8 °F 21.0 °F 47% 30.04 in 10.0 mi NNW 27.6 mph 40.3 mph N/A   Overcast
12:53 PM 39.9 °F 28.4 °F 19.9 °F 45% 30.05 in 10.0 mi NNW 29.9 mph 36.8 mph N/A   Overcast
1:53 PM 39.0 °F 27.6 °F 19.0 °F 45% 30.06 in 10.0 mi NNW 27.6 mph 38.0 mph N/A   Scattered Clouds
2:53 PM 37.0 °F 25.1 °F 16.0 °F 42% 30.09 in 10.0 mi NNW 26.5 mph 36.8 mph N/A   Mostly Cloudy
3:53 PM 37.0 °F 25.9 °F 16.0 °F 42% 30.12 in 10.0 mi NNW 23.0 mph 34.5 mph N/A   Mostly Cloudy
4:53 PM 34.0 °F 22.7 °F 14.0 °F 44% 30.16 in 10.0 mi NW 19.6 mph 26.5 mph N/A   Scattered Clouds
5:53 PM 33.8 °F 23.9 °F 10.4 °F 38% 30.13 in 10.0 mi NNW 15.0 mph 23.0 mph N/A   Clear
6:53 PM 28.0 °F 19.3 °F 10.0 °F 47% 30.24 in 10.0 mi NW 9.2 mph - N/A   Scattered Clouds
7:53 PM 30.9 °F 20.7 °F 12.9 °F 47% 30.28 in 10.0 mi NW 13.8 mph - N/A   Overcast
8:53 PM 28.0 °F 17.5 °F 12.9 °F 53% 30.29 in 10.0 mi NW 12.7 mph - N/A   Clear
9:53 PM 25.0 °F 13.1 °F 15.1 °F 66% 30.31 in 10.0 mi WNW 13.8 mph - N/A   Partly Cloudy
10:53 PM 23.0 °F 11.1 °F 16.0 °F 74% 30.33 in 10.0 mi West 12.7 mph - N/A   Clear
11:53 PM 23.0 °F 10.1 °F 15.1 °F 72% 30.32 in 10.0 mi WNW 15.0 mph - N/A   Clear